Hourly Weather Roundup
Issued by NWS Central Illinois

Home | Current Version | Previous Version | Text Only | Print | Product List | Glossary On
Versions: 1 2 3 4 5 6 7 8 9 10 11 12 13 14 15 16 17 18 19 20 21 22 23 24 25 26 27 28 29 30 31 32 33 34 35 36 37 38 39 40 41 42 43 44 45 46 47 48 49 50
000
NZUS43 KILX 042110
HWRILX

AREA WEATHER ROUNDUP
NATIONAL WEATHER SERVICE, LINCOLN IL
400 PM CDT TUE AUG 04 2015


CITY           SKY/WX    TMP DP  RH WIND       PRES   REMARKS
BLOOMINGTON    CLOUDY    80  61  52 VRB5      30.01F HX  81
CHAMPAIGN      MOSUNNY   80  60  50 W5        30.02F HX  81
DANVILLE       MOSUNNY   79  60  52 W10       29.99S HX  80
DECATUR        CLOUDY    79  61  53 SW3       30.00F HX  80
EFFINGHAM      LGT RAIN  75  64  67 N6        30.01F
FLORA          MOSUNNY   84  69  61 N12G20    29.98S HX  87
GALESBURG      CLOUDY    76  62  61 N8        29.96F
JACKSONVILLE   PTSUNNY   78  65  65 CALM      29.98F HX  80
LACON          CLOUDY    78  60  54 NW6       29.98F
LAWRENCEVILLE  PTSUNNY   84  68  58 N8        29.98F HX  87
LITCHFIELD     PTSUNNY   81  65  59 NE3       29.98F HX  83
$$


CITY           SKY/WX    TMP DP  RH WIND       PRES   REMARKS
LINCOLN        CLOUDY    81  59  47 S5        29.99F HX  81
MACOMB         CLOUDY    77  63  62 W7        30.02R
MATTOON        LGT RAIN  73  63  70 CALM      30.00F
MT CARMEL AP   PTSUNNY   88  70  55 N7        29.97S HX  92
OLNEY-NOBLE AP CLOUDY    82  70  65 N12G17    29.99R HX  86
PARIS          CLOUDY    79  63  57 W8        30.03S HX  80
PEORIA         CLOUDY    81  60  48 NW5       29.98F HX  82
PONTIAC        CLOUDY    79  64  59 W9        30.00F HX  81
RANTOUL        MOSUNNY   82  61  47 W9        30.00F HX  83
ROBINSON       PTSUNNY   80  66  61 NW7       30.02R HX  82
SPRINGFIELD    CLOUDY    79  64  60 W3        30.00F HX  81
TAYLORVILLE    CLOUDY    73  68  83 CALM      30.00F
$$

...REGIONAL REPORTS...


CITY           SKY/WX    TMP DP  RH WIND       PRES   REMARKS
CHICAGO O`HARE PTSUNNY   80  53  39 NW15G21   29.96F HX  80
KANKAKEE       CLOUDY    79  56  45 NW10      30.00S HX  80
MOLINE         CLOUDY    82  59  45 N5        29.96F HX  82
MOUNT STERLING NOT AVBL
MOUNT VERNON   PTSUNNY   90  72  55 NW5       29.96F HX  96
PITTSFIELD     PTSUNNY   79  65  63 SE6       30.00F HX  80
QUINCY         CLOUDY    77  59  53 E7        29.99F
ROCKFORD       CLOUDY    82  50  32 NW12      29.99F HX  81
$$


CITY           SKY/WX    TMP DP  RH WIND       PRES   REMARKS
BURLINGTON     CLOUDY    76  64  66 S6        29.98R
CEDAR RAPIDS   CLOUDY    78  63  59 NW3       29.97F HX  80
DES MOINES     CLOUDY    78  61  55 S8        29.96S HX  80
KIRKSVILLE     CLOUDY    75  66  73 SE7       30.00F
OTTUMWA        PTSUNNY   76  60  57 E7        29.97S
ST LOUIS       CLOUDY    87  70  56 N12G17    29.97F HX  92
$$


CITY           SKY/WX    TMP DP  RH WIND       PRES   REMARKS
TERRE HAUTE    CLOUDY    80  59  48 W8        30.01S HX  81
EVANSVILLE     MOSUNNY   92  73  53 SW13G23   29.96S HX 100
INDIANAPOLIS   PTSUNNY   80  56  43 NW13      29.99F HX  80
LAFAYETTE      PTSUNNY   79  59  50 W9        29.99S HX  80
MADISON        PTSUNNY   78  53  41 NW7       29.97F
MILWAUKEE      PTSUNNY   79  49  34 NW12      29.96S
$$





USA.gov is the U.S. government's official web portal to all federal, state and local government web resources and services.